Regional Weather Roundup
Issued by NWS Wakefield, VA

Home | Current Version | Previous Version | Graphics & Text | Print | Product List | Glossary Off
Versions: 1 2 3 4 5 6 7 8 9 10 11 12 13 14 15 16 17 18 19 20 21 22 23 24 25 26 27 28 29 30 31 32 33 34 35 36 37 38 39 40 41 42 43 44 45 46 47 48 49 50

000
ASUS41 KAKQ 022110
RWRAKQ

REGIONAL WEATHER ROUNDUP
NATIONAL WEATHER SERVICE WAKEFIELD VA
500 PM EDT TUE SEP 02 2014

Note: "fair" indicates few or no clouds below 12,000 feet with no
significant weather and/or obstructions to visibility. * = Denotes
station may not report precipitation (e.g., rain,snow,etc.),
thunder or fog.

VAZ042-051-052>054-056-022200-
NORTHERN VIRGINIA

CITY           SKY/WX    TMP DP  RH WIND       PRES   REMARKS
WASH NATIONAL  PTSUNNY   94  70  45 S12       29.87F HX 100
DULLES         PTSUNNY   90  72  55 S9        29.85F HX  97
FORT BELVOIR   MOSUNNY   90  71  54 S8        29.86F HX  96
QUANTICO       MOSUNNY   91  72  53 SW8       29.87F HX  98
FREDERICKSBRG* SUNNY     95  69  43 SW12      29.87F HX 101
STAFFORD*      SUNNY     91  73  56 S6        29.91F HX  98
WARRENTON      PTSUNNY   94  76  56 S7        29.85F HX 106
CULPEPER*      MOSUNNY  N/A N/A N/A SW9       29.86F
MANASSAS*      MOSUNNY   90  73  58 S7        29.86F HX  98
LEESBURG*      PTSUNNY   86  72  62 E8        29.86F
WINCHESTER     PTSUNNY   82  63  51 W6        29.88F
$$

VAZ048-049-060>072-079>083-022200-
CENTRAL AND SOUTH CENTRAL VIRGINIA...AND NORTH CENTRAL NORTH CAROLINA

CITY           SKY/WX    TMP DP  RH WIND       PRES   REMARKS
RICHMOND       MOSUNNY   97  65  34 SW14G22   29.90F HX  99
CHESTERFIELD*  PTCLDY    95  64  36 SW13G21   29.93F HX  97
PETERSBURG*    SUNNY     92  65  40 S7        29.93F
HANOVER        SUNNY     96  65  35 W12       29.91F HX  98
TAPPAHANNOCK*  MOSUNNY   96  62  32 S8        29.90F HX  96
CHARLOTTSVILLE CLOUDY    89  68  49 SW6       29.90F
ORANGE*        RAIN      84  72  65 S5        29.91F
LOUISA*        MOSUNNY   93  70  46 S6        29.89F HX  99
FARMVILLE*     MOSUNNY   93  66  40 S12       29.91S HX  96
SOUTH HILL*    SUNNY     95  70  43 SW6       30.00F HX 101
ROANOKE RAPIDS CLEAR     91  68  46 S9        29.94F HX  95
RALEIGH        MOSUNNY   94  69  44 SW9       29.95F HX  99
$$

VAZ088>098-022200-
SOUTHEAST VIRGINIA

CITY           SKY/WX    TMP DP  RH WIND       PRES   REMARKS
NORFOLK        SUNNY     96  64  34 W13       29.92F HX  98
VIRGINIA BEACH MOSUNNY   94  67  41 SW14      29.91F HX  97
NORFOLK NAVAL  PTSUNNY   96  66  37 SW10G17   29.93F HX  99
WEST POINT*    NOT AVBL
NEWPORT NEWS   SUNNY     98  67  36 SW13G23   29.92F HX 102
LANGLEY AFB    SUNNY     95  67  40 SW16      29.91F HX  99
FORT EUSTIS    SUNNY     94  66  39 SW10      29.90F HX  97
WILLIAMSBURG*  SUNNY     99  66  34 SW5G16    29.92S HX 102
FRANKLIN*      SUNNY     93  68  43 SW10      29.93F HX  97
WAKEFIELD      SUNNY     95  66  38 SW13G20   29.92F HX  98
$$

VAZ020-022-025-037-045-022200-
WESTERN AND SOUTHWEST VIRGINIA

CITY           SKY/WX    TMP DP  RH WIND       PRES   REMARKS
STAUNTON*      MOSUNNY   89  62  40 SW9       29.95S
HOT SPRINGS VA PTSUNNY   75  58  55 SW9       30.14S
LYNCHBURG      SUNNY     88  69  53 SW8       29.97F
DANVILLE       SUNNY     94  68  42 W8        29.95F HX  98
MARTINSVILLE   PTSUNNY   84  72  68 CALM      30.00F
ROANOKE        MOSUNNY   88  66  48 S9        29.98F
BLACKSBURG     SUNNY     88  66  48 SW8       30.05S
DUBLIN*        MOSUNNY   87  64  47 SW10      30.05S
MARION*        MOSUNNY  N/A N/A N/A SW8       30.09F
HILLSVILLE*    MOSUNNY   79  67  65 S5        30.10F
RICHLANDS*     PTCLDY    85  67  54 S7        30.08S
WISE*          PTSUNNY   81  64  57 SW12      30.08F
ABINGDON*      MOSUNNY   86  68  53 W6        30.05F
$$

MDZ021>025-VAZ099-100-022200-
SOUTHERN MARYLAND AND THE DELMARVA PENINSULA

CITY           SKY/WX    TMP DP  RH WIND       PRES   REMARKS
PATUXENT RIVER MOSUNNY   90  72  55 SE12G20   29.88F HX  97
BAY BRIDGE APT   N/A     90  64  43 S9        29.87F
LEONARDTOWN    SUNNY     93  63  36 W9        29.90F
DOVER          SUNNY     92  71  48 SW8       29.87F HX  98
GEORGETOWN     SUNNY     93  68  43 S9        29.89F HX  97
EASTON         MOSUNNY   95  68  41 W9        29.92F HX  99
CAMBRIDGE      SUNNY     93  66  40 S5        29.88F HX  96
SALISBURY      SUNNY     95  69  42 SW9       29.90S HX 100
OCEAN CITY     SUNNY     88  75  65 SW8       29.90F HX  97
WALLOPS ISLAND SUNNY     91  76  61 SW13      29.91F HX 103
ACCOMACK*        N/A     91  72  52 S6        29.91F HX  98
$$

NCZ012>017-030>032-022200-
EASTERN NORTH CAROLINA

CITY           SKY/WX    TMP DP  RH WIND       PRES   REMARKS
ELIZABETH CITY SUNNY     92  71  50 SW12      29.94F HX  98
AHOSKIE*       SUNNY     91  71  50 S6        29.95F HX  98
EDENTON*       MOSUNNY   93  71  49 SW7       29.95F HX 100
CURRITUCK*     SUNNY     94  67  40 SW8G17    29.95F HX  97
KILL DEVIL HLS SUNNY     91  77  63 S7        29.95F HX 104
MANTEO         SUNNY     91  78  65 S15       29.96F HX 104
CAPE HATTERAS  SUNNY     83  76  79 SW15G24   30.01S
GOLDSBORO      MOSUNNY   94  76  56 S9        29.92F HX 106
WASHINGTON     SUNNY     93  72  50 SW13      29.96F HX 100
GREENVILLE     MOSUNNY   93  73  52 S9        29.97F HAZE    HX 102
NEW BERN       SUNNY     91  75  59 S13G21    29.99F HX 101
WILMINGTON     SUNNY     88  75  65 S13       29.99F HX  97
$$

VAZ048-022200-
ELSEWHERE

CITY           SKY/WX    TMP DP  RH WIND       PRES   REMARKS
HARRISBURG PA  TSTM      77  70  79 S9G39     29.85S
BALTIMORE      PTSUNNY   87  70  56 S5        29.86F
ANNAPOLIS      MOSUNNY   89  69  51 S13       29.86F
ANDREWS AFB    MOSUNNY   91  71  51 S13       29.88F HX  97
WILMINGTON DE  SUNNY     90  70  51 SW9       29.87F HX  95
PHILADELPHIA   MOSUNNY   91  70  49 SW14G21   29.86F HX  96
WILDWOOD NJ*   SUNNY     90  70  51 S12       29.90S HX  95
ATLANTIC CITY  SUNNY     90  69  50 SW13      29.87F
HENDERSON NC   MOSUNNY   93  62  34 S5        29.95F
GREENSBORO     PTSUNNY   89  69  51 S13       29.96F
ROCKY MOUNT    SUNNY     95  70  44 S5        29.95F HX 101
FAYETTEVILLE   TSTM      76  73  91 NW23G32   30.01R FOG
CHARLOTTE      MOSUNNY   93  65  39 SW7       29.98F HX  95
$$

VAZ100-022200-
MARINE

STATION/POSITION TIME  TEMP    WIND        PRES    WAVE   SWELL
                       AIR SEA DIR/SP/G            HT/PER HT/PER
                 (UTC) (F)     (DEG/KT/KT) (MB)    (FT/S) (FT/S)
44066 TX TWR #4  2100   77 76  220/ 12/ 14 1011.6F   3/ 6   2/10
CAPE MAY NJ      2100   85 81  170/  6/ 11 1011.7F
LEWES DE         2100   90 79  360/  3/  4 1011.7F
15NM E FENWICK I 2100   79 77              1012.0F   2/ 8
OCEAN-CITY-INLET 2100   80 77  210/ 15/ 17 1012.0F
WACHAPREAGUE VA  2100   87 85  200/  9/ 11 1013.1R
THOMAS POINT MD  2100   85 80  170/ 10/ 10 1012.3F
GOOSES REEF MD   2100   85     190/ 10/ 14 1012.5S
COVE POINT MD    2100   83     180/ 12/ 13 1012.0F
SOLOMONS ISLAND  2100      82                N/A
BISHOPS HEAD MD  2100   84     160/ 11/ 12 1012.2F
PINEY POINT MD   2100          150/ 11/ 11   N/A
POTOMAC MD       2100   84     140/  8/ 10 1011.7F
CAMBRIDGE MD     2100   93 80  190/  3/  5 1011.7F
LEWISETTA VA     2100   85 83  110/  7/ 10 1011.8F
RAPPAHANNOCK LGT 2100          170/ 13/ 14 1013.4F
STINGRAY PT      2100   86     170/ 10/ 12   N/A
YORK RVR RNG VA  2100   90     220/ 14/ 15 1012.4S
YORKTOWN VA      2100   93 82  220/ 14/ 19 1012.5S
JAMESTOWN VA     2100   92     230/ 12/ 16   N/A
DOMINION TERM VA 2100   89     230/ 12/ 13 1013.5S
KIPTOPEKE VA     2100      84  190/  7/  9   N/A
CHES BAY BRIDGE  2100   90 78  220/  8/  9 1012.8F
CAPE HENRY VA    2100   88      80/  5/  5 1012.3S
CHESAPEAKE LGHT  2000   83     180/ 22/ 23 1013.9F
WILLOUBY STN VA  2100   90     240/ 13/ 15 1012.1F
S CRANEY ISL VA  2100          210/ 11/ 16 1013.0S
CAPE HENRY BUOY  2100      81                N/A     2/ 9   2/11
1ST LANDING BUOY 2100   87     100/  4/  6 1013.0F
CAPE CHARLES BUO 2100      81                N/A     2/11   2/11
OFFSHORE WE BUOY 2100      80                N/A     3/11   2/11
64NM E OF VA BCH 2100   80 79  200/ 12/ 14 1014.2F   2/ 9   2/ 9
DUCK PIER NC     2100   91 75  240/  8/ 12 1013.9S
44056 DUCK FRF   2100                        N/A     2/12   2/12
OREGON INLET NC  2100   83 85  200/ 20/ 24 1015.1S
HATTERAS NC      2100   84 84  220/ 12/ 17 1016.5S
DIAMOND SHLS NC  2100   82     210/ 16/ 17 1015.9F   3/ 4   2/ 9
CAPE LOOKOUT NC  2000   84     220/ 13/ 17 1016.5F
$$



USA.gov is the U.S. government's official web portal to all federal, state and local government web resources and services.